Location: Boullarre
(49.1305°N, 3.0047°E)
Time: 18:10:00
(UTC+00:00)

Cosmos 2322 Rocket - Pass Details

Date: 03 February 2023
Orbit: 831 x 851 km, 71.0° (Epoch: 25 March)

Event Time Altitude Azimuth Distance (km) Brightness Sun altitude
Rises 20:00:01 0° 249° (WSW) 3,371 6.1 -31.6°
Reaches altitude 10° 20:02:54 10° 263° (W) 2,441 5.4 -32.0°
Maximum altitude 20:07:26 25° 317° (NW) 1,646 4.1 -32.7°
Enters shadow 20:10:18 17° 357° (N) 2,012 4.3 -33.2°
